Location: Borea
(45.6167°N, 23.0167°E)
Time: 10:41:01
(UTC+00:00)

USA 215 - Pass Details

Date: 03 February 2023
Orbit: 1100 x 1107 km, 123.0° (Epoch: 18 March)

Event Time Altitude Azimuth Distance (km) Brightness Sun altitude
Rises 16:27:56 0° 135° (SE) 3,910 5.8 -9.3°
Reaches altitude 10° 16:30:26 10° 138° (SE) 2,954 5.2 -9.8°
Maximum altitude 16:36:56 70° 222° (SW) 1,165 3.6 -10.9°
Drops below altitude 10° 16:43:28 10° 306° (NW) 2,963 6.2 -12.0°
Sets 16:45:59 0° 308° (NW) 3,923 6.8 -12.4°
